Find Starlink 36287

NORAD ID: 67708 Int'l Des: 2026-025 Owner: SPXS Country: US Constellation: starlink operational
LEOCIRCULARRETROGRADE

Aktuelle Ansicht

3D-Globus wird geladen...

Über Starlink 36287

Beschreibung wird geladen...

Nächste Überflüge

Passes for default location (London). Set your location on the main map for personalized predictions.

Höhenverlauf

Loading altitude history...

Zweizeiliger Elementsatz

1 67708U 26025R 26146.26808707 .00016116 00000-0 50037-3 0 9993
2 67708 97.2849 257.8996 0000666 106.2155 253.9161 15.33451154 17910
Epoch: 26. Mai 2026 • Age: 17 hours

Aktueller Status

Höhe 494.3 km
Geschwindigkeit 7.62 km/s
Subsatellitenpunkt -82.74°S, 111.22°E
Startdatum 7. Feb. 2026
Alter 0.2 years
Typ internet

Technische Details

Klassifizierung Payload
Masse 575.00 kg
Trockenmasse 530.00 kg
Gesamtmasse 575.00 kg
Länge 0.30 m
Durchmesser 4.10 m
Spannweite 29.00 m
Form Box + pan
Hersteller SPXS
Bus-Typ Starlink V2MO
Phasenstatus In Orbit
Besitzer/Staat SPXS/US

Most Searched